Weather History for Biloxi, MS

Change the Weather History Date:

Monday, February 11, 2013

  Actual Average Record
Temperature  
Mean Temperature 62 °F -  
Max Temperature 68 °F 61 °F 76 °F (1957)
Min Temperature 57 °F 42 °F 27 °F (1973)
Degree Days  
Heating Degree Days 2    
Growing Degree Days 12 (Base 50)    
Moisture  
Dew Point 62 °F    
Average Humidity 96    
Maximum Humidity 100    
Minimum Humidity 87    
Precipitation  
Precipitation 0.36 in - - ()
Sea Level Pressure  
Sea Level Pressure 30.05 in    
Wind  
Wind Speed 9 mph (ENE)    
Max Wind Speed 18 mph    
Max Gust Speed 26 mph    
Visibility 6 miles    
Events Fog , Rain    
Averages and records for this station are not official NWS values.
T = Trace of Precipitation, MM = Missing Value Source: NWS Daily Summary

Daily Weather History Graph

Daily Weather History Graph

Search for Another Location

Airport:

Trip Planner

Search our weather history database for the weather conditions in past years. The results will help you decide how hot, cold, wet, or windy it might be!

Date:

Astronomy

Feb. 11, 2013 Rise Set
Actual Time 6:39 AM CST 5:41 PM CST
Civil Twilight 6:14 AM CST 6:05 PM CST
Nautical Twilight 5:46 AM CST 6:34 PM CST
Astronomical Twilight 5:18 AM CST 7:02 PM CST
Moon 7:13 AM CST (2/11) 7:25 PM CST (2/11)
Length of Visible Light 11h 51m
Length of Day
11h 01m
Waxing Crescent, 3% of the Moon is Illuminated
Feb 11
Waxing Crescent
Feb 17
First Quarter
Feb 25
Full
Mar 4
Last Quarter
Mar 11
New

Hourly Weather History & Observations

Time (CST) Temp. Dew Point Humidity Pressure Visibility Wind Dir Wind Speed Gust Speed Precip Events Conditions
12:08 AM 68.0 °F 66.2 °F 94% 30.02 in 8.0 mi SSW 13.8 mph - N/A   Overcast
12:23 AM 66.2 °F 66.2 °F 100% 30.02 in 5.0 mi South 12.7 mph - N/A   Mostly Cloudy
12:28 AM 66.2 °F 66.2 °F 100% 30.02 in 5.0 mi South 11.5 mph - N/A   Mostly Cloudy
12:33 AM 68.0 °F 66.2 °F 94% 30.02 in 6.0 mi SSW 10.4 mph - N/A   Mostly Cloudy
12:58 AM 66.7 °F 66.2 °F 98% 30.03 in 7.0 mi SSW 8.1 mph - N/A   Overcast
1:33 AM 66.2 °F 66.2 °F 100% 30.01 in 7.0 mi South 10.4 mph - N/A   Overcast
1:48 AM 66.2 °F 66.2 °F 100% 30.01 in 7.0 mi South 12.7 mph - N/A   Mostly Cloudy
1:53 AM 66.2 °F 66.2 °F 100% 30.00 in 6.0 mi South 10.4 mph - N/A   Mostly Cloudy
2:18 AM 66.2 °F 66.2 °F 100% 30.00 in 4.0 mi SSW 12.7 mph - N/A   Scattered Clouds
2:23 AM 66.2 °F 66.2 °F 100% 30.01 in 3.0 mi SSW 12.7 mph - N/A   Scattered Clouds
2:28 AM 66.2 °F 66.2 °F 100% 30.01 in 5.0 mi SW 11.5 mph - N/A   Scattered Clouds
2:33 AM 66.2 °F 66.2 °F 100% 30.01 in 7.0 mi SW 12.7 mph - N/A   Scattered Clouds
2:38 AM 66.2 °F 66.2 °F 100% 30.01 in 9.0 mi SW 11.5 mph - N/A   Mostly Cloudy
2:43 AM 68.0 °F 66.2 °F 94% 30.01 in 10.0 mi SW 10.4 mph - N/A   Mostly Cloudy
2:53 AM 68.0 °F 66.2 °F 94% 30.01 in 8.0 mi SW 10.4 mph - N/A   Mostly Cloudy
2:58 AM 67.1 °F 66.6 °F 98% 30.02 in 8.0 mi SSW 10.4 mph - N/A   Overcast
3:08 AM 66.2 °F 66.2 °F 100% 30.02 in 7.0 mi SW 8.1 mph - N/A   Overcast
3:38 AM 66.2 °F 66.2 °F 100% 30.01 in 5.0 mi SSW 8.1 mph - N/A   Overcast
3:48 AM 66.2 °F 66.2 °F 100% 30.01 in 3.0 mi SSW 6.9 mph - N/A   Mostly Cloudy
3:53 AM 66.2 °F 66.2 °F 100% 30.01 in 2.5 mi SSW 5.8 mph - N/A   Overcast
3:58 AM 66.2 °F 66.2 °F 100% 30.02 in 2.0 mi SSW 5.8 mph - N/A   Overcast
4:08 AM 66.2 °F 66.2 °F 100% 30.00 in 0.8 mi SSW 8.1 mph - N/A   Overcast
4:13 AM 66.2 °F 66.2 °F 100% 29.99 in 1.2 mi SSW 8.1 mph - N/A   Mostly Cloudy
4:18 AM 68.0 °F 66.2 °F 94% 29.99 in 3.0 mi SSW 10.4 mph - N/A   Mostly Cloudy
4:23 AM 68.0 °F 66.2 °F 94% 29.99 in 4.0 mi SSW 11.5 mph - N/A   Scattered Clouds
4:28 AM 68.0 °F 66.2 °F 94% 29.99 in 6.0 mi South 10.4 mph - N/A   Scattered Clouds
4:38 AM 68.0 °F 66.2 °F 94% 29.99 in 5.0 mi SSW 10.4 mph - N/A   Partly Cloudy
4:53 AM 68.0 °F 66.2 °F 94% 29.99 in 1.5 mi South 9.2 mph - N/A   Scattered Clouds
5:03 AM 66.2 °F 66.2 °F 100% 29.99 in 0.5 mi SSW 9.2 mph - N/A Fog Fog
5:08 AM 66.2 °F 66.2 °F 100% 30.00 in 0.8 mi South 8.1 mph - N/A   Mist
5:13 AM 66.2 °F 66.2 °F 100% 30.00 in 0.5 mi South 8.1 mph - N/A Fog Fog
5:43 AM 64.4 °F 64.4 °F 100% 30.02 in 0.5 mi Calm Calm - N/A Fog Fog
5:58 AM 65.3 °F 64.8 °F 98% 30.04 in 0.5 mi Calm Calm - N/A Fog Fog
6:03 AM 66.2 °F 64.4 °F 94% 30.03 in 0.8 mi Calm Calm - N/A   Mist
6:08 AM 66.2 °F 64.4 °F 94% 30.04 in 1.0 mi Calm Calm - N/A   Mist
6:18 AM 66.2 °F 66.2 °F 100% 30.04 in 0.8 mi Calm Calm - N/A   Mist
6:38 AM 66.2 °F 66.2 °F 100% 30.04 in 0.2 mi Calm Calm - N/A Fog Fog
6:58 AM 66.4 °F 66.2 °F 99% 30.06 in 1.8 mi Calm Calm - N/A   Overcast
7:03 AM 66.2 °F 66.2 °F 100% 30.05 in 1.5 mi Calm Calm - N/A   Overcast
7:18 AM 66.2 °F 66.2 °F 100% 30.06 in 1.8 mi Calm Calm - N/A   Overcast
7:23 AM 66.2 °F 66.2 °F 100% 30.06 in 2.0 mi Calm Calm - N/A   Overcast
7:30 AM 66.2 °F 66.2 °F 100% 30.06 in 2.0 mi Calm Calm - N/A   Overcast
7:46 AM 66.2 °F 66.2 °F 100% 30.06 in 1.2 mi Calm Calm - N/A   Overcast
7:51 AM 66.2 °F 66.2 °F 100% 30.07 in 0.5 mi Calm Calm - N/A Fog Fog
7:58 AM 66.4 °F 66.0 °F 99% 30.08 in 0.2 mi Calm Calm - N/A Fog Fog
8:03 AM 66.2 °F 66.2 °F 100% 30.07 in 0.5 mi Calm Calm - N/A Fog Fog
8:08 AM 66.2 °F 66.2 °F 100% 30.07 in 0.5 mi Calm Calm - N/A Fog Fog
8:13 AM 66.2 °F 66.2 °F 100% 30.08 in 1.0 mi Calm Calm - N/A   Mist
8:18 AM 68.0 °F 68.0 °F 100% 30.07 in 2.0 mi Calm Calm - N/A   Overcast
8:24 AM 68.0 °F 68.0 °F 100% 30.07 in 4.0 mi Calm Calm - N/A   Overcast
8:29 AM 68.0 °F 68.0 °F 100% 30.07 in 4.0 mi Calm Calm - N/A   Overcast
8:33 AM 68.0 °F 68.0 °F 100% 30.09 in 4.0 mi Variable 6.9 mph - N/A Rain Light Rain
8:48 AM 64.4 °F 62.6 °F 94% 30.10 in 10.0 mi North 8.1 mph - N/A Rain Light Rain
8:53 AM 62.6 °F 62.6 °F 100% 30.10 in 7.0 mi Variable 6.9 mph 18.4 mph N/A Rain Light Rain
8:58 AM 62.8 °F 62.1 °F 97% 30.12 in 6.0 mi North 5.8 mph 18.4 mph 0.03 in Rain Light Rain
9:03 AM 62.6 °F 60.8 °F 94% 30.11 in 7.0 mi NNE 10.4 mph - N/A Rain Light Rain
9:10 AM 60.8 °F 60.8 °F 100% 30.11 in 10.0 mi NNE 10.4 mph - N/A   Overcast
9:28 AM 62.6 °F 60.8 °F 94% 30.11 in 10.0 mi NNE 10.4 mph - N/A Rain Light Rain
9:40 AM 62.6 °F 60.8 °F 94% 30.10 in 10.0 mi NNE 10.4 mph - N/A   Mostly Cloudy
9:58 AM 62.4 °F 61.2 °F 96% 30.12 in 10.0 mi NNE 8.1 mph 18.4 mph 0.01 in   Overcast
10:00 AM 62.6 °F 60.8 °F 94% 30.11 in 10.0 mi NNE 9.2 mph 18.4 mph N/A Rain Light Rain
10:22 AM 62.6 °F 60.8 °F 94% 30.10 in 1.2 mi North 2.3 mph - N/A Rain Heavy Rain
10:32 AM 62.6 °F 60.8 °F 94% 30.11 in 5.0 mi NE 18.4 mph 23.0 mph N/A Rain Light Rain
10:37 AM 62.6 °F 59.0 °F 88% 30.11 in 10.0 mi NNE 12.7 mph 23.0 mph N/A Rain Light Rain
10:42 AM 62.6 °F 59.0 °F 88% 30.11 in 10.0 mi NNE 9.2 mph - N/A   Mostly Cloudy
10:54 AM 62.6 °F 59.0 °F 88% 30.10 in 10.0 mi NNE 11.5 mph - N/A Rain Light Rain
10:58 AM 61.9 °F 58.8 °F 90% 30.11 in 10.0 mi NNE 12.7 mph 18.4 mph 0.18 in Rain Light Rain
11:36 AM 60.8 °F 57.2 °F 88% 30.10 in 10.0 mi North 12.7 mph - N/A   Overcast
11:58 AM 60.6 °F 56.7 °F 87% 30.10 in 6.0 mi NNE 15.0 mph - 0.01 in Rain Light Rain
12:37 PM 59.0 °F 55.4 °F 88% 30.11 in 10.0 mi NNE 10.4 mph 26.5 mph N/A   Mostly Cloudy
12:58 PM 59.7 °F 56.5 °F 89% 30.09 in 10.0 mi NE 13.8 mph - 0.08 in   Overcast
1:29 PM 59.0 °F 55.4 °F 88% 30.07 in 6.0 mi NE 12.7 mph - N/A Rain Rain
1:58 PM 58.6 °F 55.4 °F 89% 30.08 in 10.0 mi NE 11.5 mph - 0.04 in   Overcast
2:08 PM 59.0 °F 55.4 °F 88% 30.08 in 10.0 mi NNE 10.4 mph - N/A Rain Light Rain
2:22 PM 59.0 °F 55.4 °F 88% 30.06 in 10.0 mi NNE 10.4 mph - N/A   Overcast
2:58 PM 58.6 °F 56.3 °F 92% 30.07 in 10.0 mi NE 12.7 mph - 0.00 in   Overcast
3:58 PM 60.3 °F 56.8 °F 88% 30.04 in 10.0 mi ENE 13.8 mph - N/A   Overcast
4:51 PM 59.0 °F 57.2 °F 94% 30.03 in 10.0 mi ENE 13.8 mph - N/A   Overcast
4:58 PM 59.5 °F 56.3 °F 89% 30.05 in 10.0 mi ENE 12.7 mph - N/A   Overcast
5:14 PM 59.0 °F 57.2 °F 94% 30.04 in 10.0 mi ENE 12.7 mph - N/A Rain Light Rain
5:22 PM 59.0 °F 57.2 °F 94% 30.04 in 10.0 mi East 11.5 mph - N/A   Overcast
5:58 PM 59.4 °F 56.5 °F 90% 30.09 in 10.0 mi NNW 12.7 mph - 0.00 in   Overcast
6:12 PM 59.0 °F 57.2 °F 94% 30.08 in 8.0 mi NNE 8.1 mph - N/A Rain Light Rain
6:17 PM 59.0 °F 57.2 °F 94% 30.07 in 10.0 mi NNE 6.9 mph - N/A Rain Light Rain
6:27 PM 59.0 °F 57.2 °F 94% 30.07 in 10.0 mi NE 10.4 mph - N/A Rain Light Rain
6:28 PM 59.0 °F 57.2 °F 94% 30.06 in 9.0 mi NE 9.2 mph - N/A Rain Light Rain
6:29 PM 59.0 °F 57.2 °F 94% 30.06 in 9.0 mi NE 10.4 mph - N/A Rain Light Rain
6:55 PM 57.2 °F 57.2 °F 100% 30.06 in 10.0 mi NE 11.5 mph - N/A   Overcast
7:58 PM 59.0 °F 57.2 °F 94% 30.08 in 10.0 mi ENE 11.5 mph - N/A   Overcast
8:58 PM 58.1 °F 56.1 °F 93% 30.07 in 10.0 mi NE 9.2 mph - N/A   Overcast
9:07 PM 59.0 °F 57.2 °F 94% 30.06 in 10.0 mi NE 10.4 mph - N/A Rain Light Rain
9:47 PM 57.2 °F 55.4 °F 94% 30.07 in 10.0 mi NNE 6.9 mph - N/A   Overcast
9:57 PM 57.2 °F 57.2 °F 100% 30.07 in 10.0 mi NNE 6.9 mph - N/A   Overcast
9:58 PM 57.7 °F 56.3 °F 95% 30.08 in 10.0 mi NNE 5.8 mph - 0.01 in   Overcast
10:13 PM 57.2 °F 57.2 °F 100% 30.06 in 10.0 mi NE 8.1 mph - N/A   Overcast
10:58 PM 57.7 °F 56.3 °F 95% 30.07 in 10.0 mi NE 11.5 mph - N/A   Overcast
11:08 PM 57.2 °F 57.2 °F 100% 30.06 in 10.0 mi NE 9.2 mph - N/A   Overcast
11:58 PM 57.7 °F 56.3 °F 95% 30.06 in 10.0 mi NE 6.9 mph - N/A   Overcast